CW1490 Weather Reports


Display with metric or nautical units.
time (UTC)temp
F
wind
direction
speed
MPH
gust
MPH
rain 1hr
in
rain 24hr
in
rain mn
in
humidity
%
barometer
mb
20141121184700 31 43 8.0 19.0 0.00 0.00 0.00 42 1022.6
20141121183158 32 345 5.0 19.0 0.00 0.00 0.00 43 1022.2
20141121181657 31 36 6.0 15.0 0.00 0.00 0.00 44 1022.1
20141121180154 32 23 6.0 13.0 0.00 0.00 0.00 46 1021.9
20141121174951 31 323 9.0 17.0 0.00 0.00 0.00 49 1021.8
20141121173150 30 40 4.0 13.0 0.00 0.00 0.00 51 1021.5
20141121171649 30 55 5.0 11.0 0.00 0.00 0.00 52 1021.5
20141121170149 30 321 8.0 14.0 0.00 0.00 0.00 52 1021.4
20141121164646 30 345 3.0 11.0 0.00 0.00 0.00 53 1021.3
20141121163146 30 19 5.0 17.0 0.00 0.00 0.00 54 1021.1
20141121161645 30 350 8.0 16.0 0.00 0.00 0.00 53 1021.1
20141121160144 30 10 5.0 16.0 0.00 0.00 0.00 55 1021.0
20141121154643 30 14 5.0 21.0 0.00 0.00 0.00 55 1021.0
20141121153141 31 284 4.0 10.0 0.00 0.00 0.00 57 1020.9
20141121151638 30 292 5.0 16.0 0.00 0.00 0.00 59 1020.7
20141121150136 30 315 8.0 16.0 0.00 0.00 0.00 57 1020.3
20141121144635 30 338 8.0 20.0 0.00 0.00 0.00 55 1019.8
20141121143130 30 288 9.0 15.0 0.00 0.00 0.00 57 1019.8
20141121141628 29 334 6.0 15.0 0.00 0.00 0.00 57 1019.6
20141121140124 29 301 5.0 12.0 0.00 0.00 0.00 59 1019.5
20141121134621 28 334 3.0 9.0 0.00 0.00 0.00 60 1019.3
20141121133116 27 252 2.0 5.0 0.00 0.00 0.00 62 1019.2
20141121131612 26 234 2.0 4.0 0.00 0.00 0.00 66 1018.9
20141121130108 24 276 1.0 9.0 0.00 0.00 0.00 67 1018.6
20141121124606 24 194 2.0 4.0 0.00 0.00 0.00 69 1018.3
20141121123104 23 302 0.0 3.0 0.00 0.00 0.00 69 1018.1
20141121121600 23 196 1.0 7.0 0.00 0.00 0.00 71 1017.7
20141121120057 21 244 2.0 7.0 0.00 0.00 0.00 75 1017.5
20141121114553 21 240 1.0 4.0 0.00 0.00 0.00 74 1017.4
20141121113050 22 228 0.0 0.0 0.00 0.00 0.00 72 1017.2
20141121111548 22 228 1.0 3.0 0.00 0.00 0.00 73 1016.7
20141121110045 23 242 1.0 5.0 0.00 0.00 0.00 71 1016.4
20141121104544 23 145 2.0 5.0 0.00 0.00 0.00 72 1016.1
20141121103241 23 39 0.0 3.0 0.00 0.00 0.00 72 1015.9
20141121101538 24 39 0.0 4.0 0.00 0.00 0.00 68 1015.8
20141121100034 24 3 4.0 9.0 0.00 0.00 0.00 68 1015.4
20141121094532 25 296 3.0 10.0 0.00 0.00 0.00 67 1015.0
20141121093029 25 236 7.0 13.0 0.00 0.00 0.00 67 1014.4
20141121090025 25 301 5.0 9.0 0.00 0.00 0.00 67 1014.5
20141121084523 25 301 3.0 6.0 0.00 0.00 0.00 65 1014.5
20141121083022 26 262 2.0 6.0 0.00 0.00 0.00 64 1014.2
20141121081522 25 284 3.0 11.0 0.00 0.00 0.00 65 1014.3
20141121080020 25 304 1.0 4.0 0.00 0.00 0.00 64 1014.2
20141121074519 26 307 3.0 10.0 0.00 0.00 0.00 63 1014.1
20141121073017 26 244 1.0 6.0 0.00 0.00 0.00 63 1014.1
20141121071516 26 25 5.0 12.0 0.00 0.00 0.00 62 1014.0
20141121070015 26 293 4.0 8.0 0.00 0.00 0.00 63 1013.6
20141121064514 26 296 4.0 13.0 0.00 0.00 0.00 63 1013.8
20141121063012 26 289 1.0 9.0 0.00 0.00 0.00 61 1013.7
20141121061510 26 326 2.0 10.0 0.00 0.00 0.00 62 1013.6
20141121060010 26 330 3.0 13.0 0.00 0.00 0.00 62 1013.5
20141121054508 26 355 5.0 15.0 0.00 0.00 0.00 63 1013.6
20141121053006 27 324 6.0 16.0 0.00 0.00 0.00 63 1013.5
20141121051505 27 345 4.0 17.0 0.00 0.00 0.00 67 1013.5
20141121050001 26 336 2.0 9.0 0.00 0.00 0.00 69 1013.4
20141121044500 25 16 2.0 6.0 0.00 0.00 0.00 72 1013.1
20141121043100 24 210 1.0 4.0 0.00 0.00 0.00 74 1013.0
20141121041459 24 202 0.0 3.0 0.00 0.00 0.00 75 1012.9
20141121035959 24 238 0.0 3.0 0.00 0.00 0.00 74 1012.8
20141121034458 24 178 0.0 3.0 0.00 0.00 0.00 75 1012.8
20141121032957 25 287 1.0 3.0 0.00 0.00 0.00 70 1012.5
20141121031657 25 187 2.0 4.0 0.00 0.00 0.00 71 1012.5
20141121025957 26 225 0.0 7.0 0.00 0.00 0.00 69 1012.6
20141121024456 26 288 1.0 6.0 0.00 0.00 0.00 69 1012.5
20141121022956 25 262 3.0 7.0 0.00 0.00 0.00 76 1012.5
20141121021455 26 297 1.0 2.0 0.00 0.00 0.00 72 1012.5
20141121015955 27 293 2.0 4.0 0.00 0.00 0.00 67 1012.4
20141121014455 27 36 0.0 5.0 0.00 0.00 0.00 65 1012.3
20141121012954 27 313 0.0 6.0 0.00 0.00 0.00 68 1012.1
20141121011454 27 287 0.0 2.0 0.00 0.00 0.00 71 1012.0
20141121005953 28 290 0.0 3.0 0.00 0.00 0.00 67 1012.1
20141121004453 29 311 1.0 6.0 0.00 0.00 0.00 66 1012.1
20141121002953 29 296 0.0 8.0 0.00 0.00 0.00 65 1012.1
20141121001452 29 54 2.0 10.0 0.00 0.00 0.00 67 1011.9
20141120235951 29 323 2.0 6.0 0.00 0.00 0.00 77 1011.8
20141120234451 29 317 1.0 3.0 0.00 0.00 0.00 75 1011.6
20141120232950 30 269 1.0 3.0 0.00 0.00 0.00 75 1011.5
20141120231450 30 304 0.0 2.0 0.00 0.00 0.00 74 1011.3
20141120225949 31 340 2.0 6.0 0.00 0.00 0.00 72 1011.0
20141120224448 30 337 0.0 4.0 0.00 0.00 0.00 72 1010.8
20141120222948 31 24 2.0 4.0 0.00 0.00 0.00 69 1010.6
20141120221448 32 22 4.0 11.0 0.00 0.00 0.00 67 1010.4
20141120215947 32 7 5.0 9.0 0.00 0.00 0.00 66 1010.2
20141120214447 33 52 3.0 10.0 0.00 0.00 0.00 64 1010.0
20141120212946 33 297 0.0 3.0 0.00 0.00 0.00 61 1009.7
20141120211446 33 292 3.0 9.0 0.00 0.00 0.00 59 1009.6
20141120205946 34 337 2.0 8.0 0.00 0.00 0.00 58 1009.2
20141120204445 35 305 2.0 5.0 0.00 0.00 0.00 59 1009.1
20141120202945 36 329 2.0 4.0 0.00 0.00 0.00 59 1009.0
20141120201445 36 345 1.0 9.0 0.00 0.00 0.00 60 1008.9
20141120200043 36 301 3.0 9.0 0.00 0.00 0.00 60 1008.9
20141120194445 36 308 6.0 12.0 0.00 0.00 0.00 58 1008.7
20141120192943 37 340 6.0 14.0 0.00 0.00 0.00 56 1008.5
20141120191442 37 267 5.0 14.0 0.00 0.00 0.00 50 1008.3
20141120185941 37 284 7.0 14.0 0.00 0.00 0.00 51 1008.3